User: anonymous
Location: South Tamworth Observatory
(43.8246°N, 71.3026°W)
Time: 21:41:42
(UTC-04:00)
Language:

Cosmos 2208 Rocket - Orbit

View from above orbital plane
View from above orbital plane
View from above satellite
View from above satellite

Ground track
Ground track

The orbit data is extracted from the following two-line orbital elements,

1 22081U 92053B   14212.55263768  .00000137  00000-0  58891-4 0  6335
2 22081 074.0437 198.5756 0035026 064.2679 296.2081 14.33085074148186
Epoch (UTC): 31 July 2014 13:15:47
Eccentricity: 0.0035026
inclination: 74.0437°
perigee height: 756 km
apogee height: 806 km
right ascension of ascending node: 198.5756°
argument of perigee: 64.2679°
revolutions per day: 14.33085074
mean anomaly at epoch: 296.2081°
orbit number at epoch: 14818

The dashed part of the orbit path shows where the satellite is in the earth's shadow,  

DLR